Welcome to the New NWS' Forecast!
Most changes are behind the scenes, but click here for differences you might notice.

Regional Weather Roundup (RWR)

Issued by National Weather Service (NWS)

                            
675 
ASUS46 KSEW 180010
RWRWA 

WASHINGTON REGIONAL WEATHER ROUNDUP
NATIONAL WEATHER SERVICE SEATTLE WA
500 PM PDT MON SEP 17 2018

NOTE:"FAIR" INDICATES FEW OR NO CLOUDS BELOW 12,000 FEET WITH NO 
SIGNIFICANT WEATHER AND/OR OBSTRUCTIONS TO VISIBILITY.

WAZ507-509-555>559-180100-
SEATTLE, TACOMA, EVERETT, AND VICINITY
  
CITY           SKY/WX    TMP DP  RH WIND       PRES   REMARKS
EVERETT        SUNNY     61  43  51 NW8       30.11S                  
6HR MIN TEMP:  56; 6HR MAX TEMP:  62;                                

BOEING FIELD   MOSUNNY   65  41  41 NW9       30.10S                  
6HR MIN TEMP:  60; 6HR MAX TEMP:  66;                                

RENTON         SUNNY     66  44  45 NW10      30.08S                  
6HR MIN TEMP:  60; 6HR MAX TEMP:  67;                                

SEATAC AIRPORT MOSUNNY   65  43  44 W10       30.10S                  
6HR MIN TEMP:  58; 6HR MAX TEMP:  65;                                

JBLM-MCCHORD   NOT AVBL                                               
PUYALLUP       PTSUNNY   66  46  48 NW6       30.09S                  
BREMERTON      SUNNY     64  44  48 E7        30.09F                  
6HR MIN TEMP:  56; 6HR MAX TEMP:  66;                                

JBLM-FT LEWIS  NOT AVBL                                               
TACOMA NARROWS MOSUNNY   63  42  46 NE6       30.10S                  
6HR MIN TEMP:  56; 6HR MAX TEMP:  64;                                

$$
 
WAZ001-503-506-510-514-515-180100-
NORTH INTERIOR
  
CITY           SKY/WX    TMP DP  RH WIND       PRES   REMARKS
BELLINGHAM     SUNNY     63  43  48 NW8       30.11S                  
6HR MIN TEMP:  57; 6HR MAX TEMP:  64;                                

FRIDAY HARBOR  SUNNY     64  44  48 SE5       30.12S                  
6HR MIN TEMP:  59; 6HR MAX TEMP:  66;                                

EASTSOUND      SUNNY     59  46  63 NW6       30.11S                  
PORT ANGELES   MOSUNNY   57  39  51 NW7       30.13F                  
6HR MIN TEMP:  57; 6HR MAX TEMP:  61;                                

EDIZ HOOK      FAIR      56  46  69 NW9       30.13S                  
6HR MIN TEMP:  53; 6HR MAX TEMP:  57;                                

PORT TOWNSEND  FAIR      59  43  55 NW8       30.11F                  
NAS WHIDBEY    MOSUNNY   60  48  64 SW9       30.15F                  
6HR MIN TEMP:  58; 6HR MAX TEMP:  61;                                

ARLINGTON      SUNNY     63  44  50 NW14      30.10S                  
6HR MIN TEMP:  58; 6HR MAX TEMP:  65;                                

BURLINGTON     SUNNY     63  45  51 NW8       30.11S                  
$$
 
WAZ020-022-039-040-504-511-512-180100-
SOUTHWEST INTERIOR
  
CITY           SKY/WX    TMP DP  RH WIND       PRES   REMARKS
SHELTON        SUNNY     67  42  40 E3        30.06F                  
6HR MIN TEMP:  57; 6HR MAX TEMP:  68;                                

OLYMPIA        MOSUNNY   65  42  43 NE5       30.09F                  
6HR MIN TEMP:  53; 6HR MAX TEMP:  66;                                

CHEHALIS       FAIR      64  46  52 VRB6      30.09S                  
KELSO          MOSUNNY   67  44  43 N9        30.06F                  
6HR MIN TEMP:  57; 6HR MAX TEMP:  68;                                

VANCOUVER      PTSUNNY   68  43  40 NW12      30.04S                  
6HR MIN TEMP:  57; 6HR MAX TEMP:  69;                                

SCAPPOOSE, OR  MOSUNNY   68  45  43 N10       30.03F                  
6HR MIN TEMP:  59; 6HR MAX TEMP:  69;                                

PORTLAND, OR   PTSUNNY   70  45  40 NW10      30.03F                  
6HR MIN TEMP:  56; 6HR MAX TEMP:  70;                                

$$
 
WAZ021-516-517-180100-
WASHINGTON COAST
  
CITY           SKY/WX    TMP DP  RH WIND       PRES   REMARKS
FORKS          SUNNY     60  42  51 NW10      30.14S                  
6HR MIN TEMP:  56; 6HR MAX TEMP:  63;                                

HOQUIAM        MOSUNNY   62  47  57 W13G18    30.10F                  
6HR MIN TEMP:  55; 6HR MAX TEMP:  65;                                

ASTORIA, OR    MOSUNNY   62  49  62 NW18      30.09S                  
6HR MIN TEMP:  60; 6HR MAX TEMP:  65;                                

$$
 
WAZ019-023-024-040-567>569-180100-
CASCADE MOUNTAINS AND COLUMBIA GORGE
  
CITY           SKY/WX    TMP DP  RH WIND       PRES   REMARKS
STAMPEDE PASS  MOSUNNY   51  45  79 VRB7      30.08S                  
6HR MIN TEMP:  45; 6HR MAX TEMP:  55;                                

TROUTDALE, OR  PTSUNNY   70  47  43 VRB6      30.03S                  
6HR MIN TEMP:  55; 6HR MAX TEMP:  70;                                

HOOD RIVER, OR MOCLDY    68  43  40 W5        30.01F                  
THE DALLES, OR PTSUNNY   72  43  35 W9        29.99F                  
6HR MIN TEMP:  58; 6HR MAX TEMP:  72;                                

$$

WAZ026-027-041>044-520-521-180100-
EAST SLOPES
  
CITY           SKY/WX    TMP DP  RH WIND       PRES   REMARKS
OMAK           SUNNY     70  30  22 SW6       30.01F                  
6HR MIN TEMP:  59; 6HR MAX TEMP:  70;                                

WENATCHEE      MOSUNNY   68  31  25 SE7       30.00F                  
6HR MIN TEMP:  57; 6HR MAX TEMP:  69;                                

ELLENSBURG     MOSUNNY   68  23  18 CALM      30.02F                  
6HR MIN TEMP:  59; 6HR MAX TEMP:  69;                                

YAKIMA         MOSUNNY   67  32  27 CALM      30.01F                  
6HR MIN TEMP:  60; 6HR MAX TEMP:  69;                                

SUNNYSIDE ARPT MOCLDY    67  43  41 CALM      30.01F                  
6HR MIN TEMP:  55; 6HR MAX TEMP:  68;                                

YAKIMA TC      NOT AVBL                                               
$$

WAZ028-034-035-180100-
COLUMBIA BASIN
  
CITY           SKY/WX    TMP DP  RH WIND       PRES   REMARKS
EPHRATA        MOSUNNY   68  32  26 S3        30.01F                  
6HR MIN TEMP:  62; 6HR MAX TEMP:  70;                                

MOSES LAKE     MOSUNNY   67  32  27 W3        30.02F                  
6HR MIN TEMP:  59; 6HR MAX TEMP:  69;                                

PASCO          PTSUNNY   70  38  31 N8        30.01F                  
6HR MIN TEMP:  63; 6HR MAX TEMP:  72;                                

RICHLAND ARPT  MOCLDY    70  37  29 N6        30.01F                  
6HR MIN TEMP:  64; 6HR MAX TEMP:  71;                                

HERMISTON, OR  PTSUNNY   71  38  29 NE7       29.99F                  
6HR MIN TEMP:  62; 6HR MAX TEMP:  73;                                

$$

WAZ036>038-180100-
NORTHEAST WASHINGTON
  
CITY           SKY/WX    TMP DP  RH WIND       PRES   REMARKS
SPOKANE GEIGER PTSUNNY   64  34  32 N6        30.05S                  
6HR MIN TEMP:  57; 6HR MAX TEMP:  65; 6HR PCP: TRACE;                

SPOKANE FELTS  PTSUNNY   67  34  29 VRB3      30.04F                  
6HR MIN TEMP:  59; 6HR MAX TEMP:  67;                                

FAIRCHILD AFB  NOT AVBL                                               
COEURDALENE,ID PTSUNNY   64  31  28 NW5       30.05S                  
6HR MIN TEMP:  57; 6HR MAX TEMP:  64;                                

DEER PARK      MOSUNNY   63  33  32 CALM      30.05F                  
6HR MIN TEMP:  54; 6HR MAX TEMP:  64;                                

$$

WAZ029>033-180100-
SOUTHEAST WASHINGTON
  
CITY           SKY/WX    TMP DP  RH WIND       PRES   REMARKS
PULLMAN        PTSUNNY   63  35  35 N3        30.04F                  
6HR MIN TEMP:  58; 6HR MAX TEMP:  64;                                

LEWISTON, ID   PTSUNNY   71  40  32 CALM      29.99F                  
6HR MIN TEMP:  64; 6HR MAX TEMP:  72;                                

WALLA WALLA    PTSUNNY   70  35  27 N8        29.99F                  
6HR MIN TEMP:  62; 6HR MAX TEMP:  72;                                

PENDLETON, OR  MOSUNNY   67  37  33 NE9       30.00S                  
6HR MIN TEMP:  60; 6HR MAX TEMP:  70;                                

$$